Terminal Aerodrome Forecast
Issued by NWS Duluth, MN

Home | Current Version | Previous Version | Text Only | Print | Product List | Glossary On
Versions: 1 2 3 4 5 6 7 8 9 10 11 12 13 14 15 16 17 18 19 20 21 22 23 24 25 26 27 28
000
FTUS43 KDLH 232340
TAFINL
TAF
KINL 232340Z 2400/2424 VRB03KT P6SM OVC023
     FM240200 VRB03KT 5SM BR OVC015
     FM241500 VRB03KT P6SM OVC025
     FM242100 VRB03KT P6SM BKN035=

USA.gov is the U.S. government's official web portal to all federal, state and local government web resources and services.